• In Belarus
  • List of Countries
  • For 7 days
  • Water Temperature
  • Satellite Maps
  • Weather Map
  • Weather Widgets
  • user-avatar
    Login

    Hourly Weather Kanev

    Today, 22 October, Sunday

    Time Temperature Precipitation Wind Pressure Humidity
    00:00 +8°C° 0.5 mm 4 mps 744 mmHg 86%
    01:00 +7°C° 0.5 mm 4 mps 744 mmHg 86%
    02:00 +8°C° 0 mm 3 mps 744 mmHg 90%
    03:00 +6°C° 0.2 mm 4 mps 744 mmHg 88%
    04:00 +6°C° 0.2 mm 5 mps 744 mmHg 86%
    05:00 +4°C° 0.2 mm 6 mps 745 mmHg 84%
    06:00 +4°C° 0 mm 6 mps 745 mmHg 82%
    07:00 +4°C° 0 mm 6 mps 746 mmHg 81%
    08:00 +3°C° 0 mm 5 mps 746 mmHg 79%
    09:00 +5°C° 0 mm 5 mps 747 mmHg 75%
    10:00 +5°C° 0 mm 5 mps 747 mmHg 71%
    11:00 +6°C° 0 mm 5 mps 748 mmHg 66%
    12:00 +7°C° 0 mm 5 mps 748 mmHg 63%
    13:00 +7°C° 0 mm 5 mps 748 mmHg 59%
    14:00 +7°C° 0 mm 4 mps 749 mmHg 53%
    15:00 +6°C° 0 mm 4 mps 749 mmHg 56%
    16:00 +5°C° 0 mm 3 mps 749 mmHg 59%
    17:00 +4°C° 0 mm 3 mps 749 mmHg 61%
    18:00 +4°C° 0 mm 3 mps 749 mmHg 63%
    19:00 +3°C° 0 mm 3 mps 750 mmHg 65%
    20:00 +2°C° 0 mm 3 mps 750 mmHg 67%
    21:00 +3°C° 0 mm 2 mps 750 mmHg 68%
    22:00 +3°C° 0 mm 2 mps 750 mmHg 69%
    23:00 +2°C° 0 mm 2 mps 750 mmHg 71%

    Tomorrow, 23 October, Monday

    Time Temperature Precipitation Wind Pressure Humidity
    00:00 +2°C° 0 mm 2 mps 750 mmHg 72%
    01:00 +2°C° 0 mm 2 mps 750 mmHg 74%
    02:00 +1°C° 0 mm 2 mps 750 mmHg 75%
    03:00 +1°C° 0 mm 2 mps 750 mmHg 77%
    04:00 0°C° 0 mm 3 mps 750 mmHg 78%
    05:00 0°C° 0 mm 3 mps 749 mmHg 80%
    06:00 0°C° 0 mm 3 mps 750 mmHg 78%
    07:00 +1°C° 0 mm 3 mps 750 mmHg 75%
    08:00 +1°C° 0 mm 4 mps 750 mmHg 73%
    09:00 +3°C° 0 mm 4 mps 749 mmHg 67%
    10:00 +4°C° 0 mm 4 mps 749 mmHg 60%
    11:00 +6°C° 0 mm 4 mps 749 mmHg 54%
    12:00 +6°C° 0 mm 5 mps 749 mmHg 52%
    13:00 +7°C° 0 mm 5 mps 748 mmHg 50%
    14:00 +7°C° 0 mm 5 mps 748 mmHg 49%
    15:00 +6°C° 0 mm 4 mps 748 mmHg 52%
    16:00 +6°C° 0 mm 4 mps 748 mmHg 54%
    17:00 +5°C° 0 mm 4 mps 748 mmHg 57%
    18:00 +4°C° 0 mm 4 mps 748 mmHg 58%
    19:00 +4°C° 0 mm 4 mps 748 mmHg 59%
    20:00 +4°C° 0 mm 4 mps 748 mmHg 59%
    21:00 +4°C° 0 mm 4 mps 748 mmHg 58%
    22:00 +3°C° 0 mm 5 mps 749 mmHg 57%
    23:00 +3°C° 0 mm 5 mps 749 mmHg 55%

    Day after tomorrow, 24 October, Tuesday

    Time Temperature Precipitation Wind Pressure Humidity
    00:00 +3°C° 0 mm 5 mps 749 mmHg 55%
    01:00 +2°C° 0 mm 5 mps 749 mmHg 54%
    02:00 +2°C° 0 mm 5 mps 749 mmHg 54%
    03:00 +2°C° 0 mm 5 mps 749 mmHg 54%
    04:00 +2°C° 0 mm 5 mps 749 mmHg 55%
    05:00 +2°C° 0 mm 6 mps 749 mmHg 55%
    06:00 +2°C° 0 mm 6 mps 750 mmHg 56%
    07:00 +2°C° 0 mm 6 mps 750 mmHg 56%
    08:00 +2°C° 0 mm 6 mps 750 mmHg 56%
    09:00 +3°C° 0 mm 6 mps 750 mmHg 54%
    10:00 +4°C° 0 mm 6 mps 751 mmHg 53%
    11:00 +5°C° 0 mm 6 mps 751 mmHg 51%
    12:00 +5°C° 0 mm 6 mps 751 mmHg 51%
    13:00 +7°C° 0 mm 6 mps 751 mmHg 51%
    14:00 +7°C° 0 mm 6 mps 751 mmHg 51%
    15:00 +5°C° 0.2 mm 6 mps 752 mmHg 54%
    16:00 +6°C° 0.2 mm 5 mps 752 mmHg 57%
    17:00 +5°C° 0.2 mm 5 mps 752 mmHg 60%
    18:00 +5°C° 0.5 mm 5 mps 752 mmHg 62%
    19:00 +5°C° 0.5 mm 5 mps 753 mmHg 64%
    20:00 +3°C° 0.5 mm 6 mps 753 mmHg 67%
    21:00 +3°C° 0.4 mm 5 mps 753 mmHg 68%
    22:00 +3°C° 0.4 mm 5 mps 753 mmHg 69%
    23:00 +2°C° 0.4 mm 5 mps 754 mmHg 71%

    25 October, Wednesday

    Time Temperature Precipitation Wind Pressure Humidity
    00:00 +2°C° 0 mm 5 mps 754 mmHg 71%
    01:00 +3°C° 0 mm 4 mps 754 mmHg 71%
    02:00 +3°C° 0 mm 4 mps 754 mmHg 72%
    03:00 +1°C° 0 mm 4 mps 754 mmHg 73%
    04:00 +1°C° 0 mm 4 mps 754 mmHg 73%
    05:00 0°C° 0 mm 4 mps 754 mmHg 74%
    06:00 +1°C° 0 mm 4 mps 754 mmHg 73%
    07:00 +1°C° 0 mm 5 mps 755 mmHg 72%
    08:00 +1°C° 0 mm 5 mps 755 mmHg 71%
    09:00 +2°C° 0 mm 5 mps 755 mmHg 67%
    10:00 +3°C° 0 mm 5 mps 755 mmHg 62%
    11:00 +5°C° 0 mm 5 mps 755 mmHg 58%
    12:00 +5°C° 0 mm 5 mps 755 mmHg 57%
    13:00 +5°C° 0 mm 5 mps 755 mmHg 55%
    14:00 +6°C° 0 mm 5 mps 754 mmHg 53%
    15:00 +5°C° 0 mm 4 mps 754 mmHg 57%
    16:00 +4°C° 0 mm 3 mps 754 mmHg 61%
    17:00 +3°C° 0 mm 3 mps 754 mmHg 64%
    18:00 +2°C° 0 mm 3 mps 754 mmHg 66%
    19:00 +3°C° 0 mm 2 mps 755 mmHg 69%
    20:00 +2°C° 0 mm 2 mps 755 mmHg 71%
    21:00 +2°C° 0 mm 2 mps 755 mmHg 73%
    22:00 +2°C° 0 mm 2 mps 754 mmHg 74%
    23:00 +1°C° 0 mm 2 mps 754 mmHg 76%

    26 October, Thursday

    Time Temperature Precipitation Wind Pressure Humidity
    00:00 +1°C° 0 mm 2 mps 754 mmHg 77%
    01:00 +2°C° 0 mm 1 mps 754 mmHg 79%
    02:00 +2°C° 0 mm 1 mps 754 mmHg 80%
    03:00 +2°C° 0 mm 1 mps 753 mmHg 79%
    04:00 +2°C° 0 mm 1 mps 753 mmHg 79%
    05:00 +3°C° 0 mm 1 mps 753 mmHg 78%
    06:00 +2°C° 0.2 mm 2 mps 752 mmHg 78%
    07:00 +1°C° 0.2 mm 3 mps 752 mmHg 77%
    08:00 0°C° 0.2 mm 4 mps 752 mmHg 77%
    09:00 +1°C° 0 mm 4 mps 751 mmHg 76%
    10:00 +1°C° 0 mm 5 mps 751 mmHg 75%
    11:00 +2°C° 0 mm 5 mps 751 mmHg 74%
    12:00 +2°C° 0 mm 5 mps 750 mmHg 75%
    13:00 +3°C° 0 mm 5 mps 750 mmHg 77%
    14:00 +3°C° 0 mm 5 mps 749 mmHg 78%
    15:00 +4°C° 0 mm 4 mps 749 mmHg 81%
    16:00 +5°C° 0 mm 4 mps 749 mmHg 84%
    17:00 +5°C° 0 mm 4 mps 748 mmHg 88%
    18:00 +5°C° 0 mm 4 mps 748 mmHg 89%
    19:00 +5°C° 0 mm 3 mps 748 mmHg 91%
    20:00 +5°C° 0 mm 3 mps 747 mmHg 93%
    21:00 +6°C° 0.1 mm 4 mps 747 mmHg 94%
    22:00 +6°C° 0.1 mm 4 mps 746 mmHg 94%
    23:00 +6°C° 0.1 mm 4 mps 746 mmHg 95%

    27 October, Friday

    Time Temperature Precipitation Wind Pressure Humidity
    00:00 +6°C° 0.5 mm 4 mps 746 mmHg 95%
    01:00 +7°C° 0.5 mm 4 mps 745 mmHg 96%
    02:00 +7°C° 0.5 mm 4 mps 745 mmHg 96%
    03:00 +7°C° 0.4 mm 4 mps 744 mmHg 96%
    04:00 +8°C° 0.4 mm 3 mps 743 mmHg 96%
    05:00 +8°C° 0.4 mm 3 mps 743 mmHg 96%
    06:00 +8°C° 0.1 mm 3 mps 742 mmHg 95%
    07:00 +8°C° 0.1 mm 2 mps 742 mmHg 95%
    08:00 +8°C° 0.1 mm 2 mps 742 mmHg 95%
    09:00 +9°C° 0 mm 2 mps 741 mmHg 90%
    10:00 +10°C° 0 mm 2 mps 741 mmHg 86%
    11:00 +11°C° 0 mm 3 mps 741 mmHg 82%
    12:00 +12°C° 0 mm 3 mps 740 mmHg 80%
    13:00 +12°C° 0 mm 3 mps 740 mmHg 77%
    14:00 +13°C° 0 mm 3 mps 739 mmHg 75%
    15:00 +12°C° 0.3 mm 3 mps 739 mmHg 80%
    16:00 +12°C° 0.3 mm 2 mps 739 mmHg 85%
    17:00 +12°C° 0.3 mm 2 mps 738 mmHg 91%
    18:00 +10°C° 0.7 mm 2 mps 738 mmHg 92%
    19:00 +10°C° 0.7 mm 2 mps 737 mmHg 92%
    20:00 +10°C° 0.7 mm 2 mps 736 mmHg 93%
    21:00 +10°C° 0.5 mm 3 mps 736 mmHg 91%
    22:00 +10°C° 0.5 mm 4 mps 735 mmHg 89%
    23:00 +11°C° 0.5 mm 4 mps 735 mmHg 87%
    Show more